When you browse on this site, cookies collect data to enhance your experience and personalize the content and advertising you see.
Visit our Privacy Policy to learn more. By continuing to use the site, you agree to this use of cookies and data.
  • Em Portugal
  • Lista de países
  • Para 7 dias
  • Temperatura da água
  • Mapas de satélite
  • Mapa do tempo
  • Widgets de tempo
  • user-avatar
    Iniciar Sessão

    Previsão horária em La Paz

    Hoje, 18 Abril, Quinta-feira

    Tempo Temperatura Precipitação Vento Pressão Humidade
    00:00 +8°C° 0 mm 1 m/s 474 mmHg 89%
    01:00 +6°C° 0 mm 0 m/s 474 mmHg 89%
    02:00 +6°C° 0 mm 0 m/s 473 mmHg 89%
    03:00 +5°C° 0 mm 0 m/s 473 mmHg 90%
    04:00 +5°C° 0 mm 0 m/s 472 mmHg 90%
    05:00 +7°C° 0 mm 1 m/s 473 mmHg 84%
    06:00 +8°C° 0 mm 1 m/s 474 mmHg 79%
    07:00 +10°C° 0 mm 1 m/s 476 mmHg 71%
    08:00 +11°C° 0 mm 1 m/s 476 mmHg 64%
    09:00 +13°C° 0 mm 1 m/s 477 mmHg 57%
    10:00 +14°C° 0 mm 1 m/s 478 mmHg 50%
    11:00 +14°C° 0.3 mm 2 m/s 477 mmHg 52%
    12:00 +15°C° 0.3 mm 2 m/s 477 mmHg 53%
    13:00 +15°C° 0.3 mm 2 m/s 476 mmHg 54%
    14:00 +14°C° 0.4 mm 3 m/s 476 mmHg 57%
    15:00 +13°C° 0.4 mm 3 m/s 476 mmHg 60%
    16:00 +13°C° 0.4 mm 4 m/s 475 mmHg 64%
    17:00 +12°C° 0.1 mm 4 m/s 475 mmHg 71%
    18:00 +10°C° 0.1 mm 3 m/s 475 mmHg 78%
    19:00 +9°C° 0.1 mm 3 m/s 475 mmHg 85%
    20:00 +9°C° 0 mm 3 m/s 475 mmHg 86%
    21:00 +8°C° 0 mm 2 m/s 475 mmHg 88%
    22:00 +9°C° 0 mm 1 m/s 475 mmHg 89%
    23:00 +8°C° 0 mm 1 m/s 474 mmHg 89%

    Amanhã, 19 Abril, Sexta-feira

    Tempo Temperatura Precipitação Vento Pressão Humidade
    00:00 +8°C° 0 mm 1 m/s 474 mmHg 89%
    01:00 +7°C° 0 mm 1 m/s 474 mmHg 89%
    02:00 +7°C° 0 mm 1 m/s 474 mmHg 89%
    03:00 +7°C° 0 mm 1 m/s 473 mmHg 89%
    04:00 +7°C° 0 mm 1 m/s 473 mmHg 90%
    05:00 +7°C° 0.1 mm 0 m/s 474 mmHg 85%
    06:00 +8°C° 0.1 mm 0 m/s 475 mmHg 80%
    07:00 +8°C° 0.1 mm 0 m/s 476 mmHg 75%
    08:00 +11°C° 0.1 mm 1 m/s 477 mmHg 68%
    09:00 +12°C° 0.1 mm 1 m/s 477 mmHg 61%
    10:00 +14°C° 0.1 mm 2 m/s 478 mmHg 54%
    11:00 +14°C° 0.6 mm 2 m/s 478 mmHg 54%
    12:00 +15°C° 0.6 mm 2 m/s 477 mmHg 53%
    13:00 +15°C° 0.6 mm 2 m/s 477 mmHg 53%
    14:00 +13°C° 1.1 mm 3 m/s 476 mmHg 57%
    15:00 +13°C° 1.1 mm 3 m/s 476 mmHg 61%
    16:00 +12°C° 1.1 mm 3 m/s 475 mmHg 65%
    17:00 +12°C° 0.6 mm 3 m/s 475 mmHg 70%
    18:00 +12°C° 0.6 mm 2 m/s 475 mmHg 75%
    19:00 +10°C° 0.6 mm 2 m/s 475 mmHg 79%
    20:00 +10°C° 0.3 mm 2 m/s 475 mmHg 81%
    21:00 +9°C° 0.3 mm 2 m/s 475 mmHg 83%
    22:00 +8°C° 0.3 mm 2 m/s 475 mmHg 85%
    23:00 +8°C° 0 mm 2 m/s 475 mmHg 86%

    Depois de amanhã, 20 Abril, Sábado

    Tempo Temperatura Precipitação Vento Pressão Humidade
    00:00 +9°C° 0 mm 1 m/s 474 mmHg 88%
    01:00 +8°C° 0 mm 1 m/s 474 mmHg 89%
    02:00 +8°C° 0 mm 1 m/s 474 mmHg 90%
    03:00 +8°C° 0 mm 1 m/s 474 mmHg 90%
    04:00 +7°C° 0 mm 1 m/s 474 mmHg 90%
    05:00 +7°C° 0.2 mm 0 m/s 474 mmHg 87%
    06:00 +8°C° 0.2 mm 0 m/s 475 mmHg 83%
    07:00 +8°C° 0.2 mm 0 m/s 476 mmHg 80%
    08:00 +10°C° 0.2 mm 1 m/s 476 mmHg 73%
    09:00 +12°C° 0.2 mm 1 m/s 477 mmHg 66%
    10:00 +13°C° 0.2 mm 2 m/s 478 mmHg 59%
    11:00 +13°C° 0.5 mm 2 m/s 477 mmHg 58%
    12:00 +14°C° 0.5 mm 2 m/s 477 mmHg 57%
    13:00 +15°C° 0.5 mm 2 m/s 476 mmHg 56%
    14:00 +14°C° 1.1 mm 2 m/s 476 mmHg 59%
    15:00 +14°C° 1.1 mm 2 m/s 475 mmHg 62%
    16:00 +13°C° 1.1 mm 2 m/s 475 mmHg 64%
    17:00 +11°C° 0.4 mm 3 m/s 475 mmHg 70%
    18:00 +10°C° 0.4 mm 3 m/s 474 mmHg 76%
    19:00 +9°C° 0.4 mm 3 m/s 474 mmHg 82%
    20:00 +9°C° 0.1 mm 2 m/s 474 mmHg 85%
    21:00 +8°C° 0.1 mm 2 m/s 474 mmHg 88%
    22:00 +9°C° 0.1 mm 1 m/s 475 mmHg 90%
    23:00 +8°C° 0 mm 1 m/s 474 mmHg 91%

    21 Abril, Domingo

    Tempo Temperatura Precipitação Vento Pressão Humidade
    00:00 +8°C° 0 mm 1 m/s 474 mmHg 91%
    01:00 +7°C° 0 mm 0 m/s 473 mmHg 91%
    02:00 +6°C° 0 mm 0 m/s 473 mmHg 91%
    03:00 +7°C° 0 mm 1 m/s 472 mmHg 91%
    04:00 +7°C° 0 mm 1 m/s 472 mmHg 91%
    05:00 +7°C° 0 mm 1 m/s 473 mmHg 86%
    06:00 +8°C° 0 mm 1 m/s 474 mmHg 81%
    07:00 +9°C° 0 mm 1 m/s 475 mmHg 75%
    08:00 +11°C° 0 mm 1 m/s 476 mmHg 67%
    09:00 +12°C° 0 mm 1 m/s 477 mmHg 58%
    10:00 +14°C° 0 mm 1 m/s 478 mmHg 50%
    11:00 +14°C° 0.7 mm 1 m/s 477 mmHg 50%
    12:00 +14°C° 0.7 mm 1 m/s 476 mmHg 51%
    13:00 +14°C° 0.7 mm 2 m/s 476 mmHg 51%
    14:00 +14°C° 0.9 mm 2 m/s 475 mmHg 52%
    15:00 +14°C° 0.9 mm 2 m/s 475 mmHg 53%
    16:00 +14°C° 0.9 mm 2 m/s 475 mmHg 53%
    17:00 +12°C° 0.5 mm 2 m/s 474 mmHg 61%
    18:00 +10°C° 0.5 mm 2 m/s 474 mmHg 69%
    19:00 +9°C° 0.5 mm 2 m/s 473 mmHg 76%
    20:00 +9°C° 0.2 mm 1 m/s 473 mmHg 80%
    21:00 +9°C° 0.2 mm 1 m/s 473 mmHg 83%
    22:00 +8°C° 0.2 mm 1 m/s 473 mmHg 86%
    23:00 +8°C° 0.2 mm 1 m/s 473 mmHg 86%

    22 Abril, Segunda-feira

    Tempo Temperatura Precipitação Vento Pressão Humidade
    00:00 +8°C° 0.2 mm 1 m/s 473 mmHg 87%
    01:00 +8°C° 0.2 mm 1 m/s 473 mmHg 88%
    02:00 +7°C° 0 mm 1 m/s 472 mmHg 88%
    03:00 +7°C° 0 mm 1 m/s 472 mmHg 88%
    04:00 +7°C° 0 mm 1 m/s 472 mmHg 88%
    05:00 +7°C° 0 mm 1 m/s 473 mmHg 83%
    06:00 +8°C° 0 mm 1 m/s 473 mmHg 77%
    07:00 +8°C° 0 mm 0 m/s 474 mmHg 72%
    08:00 +10°C° 0.2 mm 1 m/s 475 mmHg 69%
    09:00 +11°C° 0.2 mm 1 m/s 476 mmHg 65%
    10:00 +13°C° 0.2 mm 2 m/s 477 mmHg 61%
    11:00 +13°C° 0.7 mm 2 m/s 476 mmHg 62%
    12:00 +13°C° 0.7 mm 2 m/s 475 mmHg 63%
    13:00 +12°C° 0.7 mm 3 m/s 475 mmHg 64%
    14:00 +12°C° 0.9 mm 3 m/s 474 mmHg 67%
    15:00 +11°C° 0.9 mm 3 m/s 474 mmHg 70%
    16:00 +11°C° 0.9 mm 4 m/s 473 mmHg 73%
    17:00 +10°C° 0.2 mm 3 m/s 473 mmHg 79%
    18:00 +9°C° 0.2 mm 3 m/s 473 mmHg 85%
    19:00 +7°C° 0.2 mm 3 m/s 473 mmHg 91%
    20:00 +7°C° 0.1 mm 3 m/s 474 mmHg 91%
    21:00 +7°C° 0.1 mm 3 m/s 474 mmHg 91%
    22:00 +7°C° 0.1 mm 3 m/s 474 mmHg 91%
    23:00 +7°C° 0.1 mm 2 m/s 474 mmHg 91%

    23 Abril, Terça-feira

    Tempo Temperatura Precipitação Vento Pressão Humidade
    00:00 +7°C° 0.1 mm 2 m/s 474 mmHg 90%
    01:00 +7°C° 0.1 mm 2 m/s 474 mmHg 90%
    02:00 +7°C° 0.1 mm 2 m/s 473 mmHg 91%
    03:00 +7°C° 0.1 mm 1 m/s 473 mmHg 92%
    04:00 +7°C° 0.1 mm 1 m/s 473 mmHg 93%
    05:00 +7°C° 0.1 mm 1 m/s 473 mmHg 92%
    06:00 +7°C° 0.1 mm 1 m/s 474 mmHg 92%
    07:00 +7°C° 0.1 mm 1 m/s 474 mmHg 92%
    08:00 +8°C° 0.2 mm 1 m/s 475 mmHg 85%
    09:00 +9°C° 0.2 mm 1 m/s 476 mmHg 79%
    10:00 +10°C° 0.2 mm 1 m/s 476 mmHg 73%
    11:00 +10°C° 0.3 mm 2 m/s 476 mmHg 70%
    12:00 +12°C° 0.3 mm 2 m/s 476 mmHg 68%
    13:00 +12°C° 0.3 mm 2 m/s 475 mmHg 66%
    14:00 +11°C° 0.3 mm 3 m/s 475 mmHg 69%
    15:00 +10°C° 0.3 mm 3 m/s 474 mmHg 72%
    16:00 +10°C° 0.3 mm 4 m/s 474 mmHg 75%
    17:00 +9°C° 0 mm 3 m/s 474 mmHg 79%
    18:00 +8°C° 0 mm 3 m/s 474 mmHg 82%
    19:00 +7°C° 0 mm 3 m/s 474 mmHg 86%
    20:00 +7°C° 0 mm 2 m/s 474 mmHg 86%
    21:00 +7°C° 0 mm 2 m/s 474 mmHg 86%
    22:00 +7°C° 0 mm 2 m/s 475 mmHg 86%
    23:00 +7°C° 0 mm 2 m/s 474 mmHg 86%
    Mostrar mais